Tracking 29594 objects as of 20-Sep-2024
HD Live streaming from Space Station
objects crossing your sky now

THOR AGENA B DEB

Track THOR AGENA B DEB now!
10-day predictions


NORAD ID: 1951
Int'l Code: 1965-098G
Perigee: 484.8 km
Apogee: 1,699.8 km
Inclination: 79.6 °
Period: 106.9 minutes
Semi major axis: 7463 km
RCS: 0.109 m2 (medium)
Launch date: November 29, 1965
Source: United States (US)
Launch site: AIR FORCE WESTERN TEST RANGE (AFWTR)

Note: This is SATELLITE DEBRIS
Your satellite tracking list
Your tracking list is empty




NASA's NSSDC Master Catalog

Two Line Element Set (TLE):
1 01951U 65098G   24263.75347856  .00021554  00000-0  41878-2 0  9993
2 01951  79.6115 259.9353 0813956  26.6790 337.3908 13.46504588721620
Source of the keplerian elements: AFSPC